Location: Star Camp Observatory
(34.2910°N, 116.3827°W)
Time: 20:47:03
(UTC-08:00)

Envisat - Pass Details

Date: 21 November 2019
Orbit: 764 x 766 km, 98.1° (Epoch: 14 December)

Event Time Altitude Azimuth Distance (km) Brightness Sun altitude
Rises 05:10:16 0° 39° (NE) 3,231 6.6 -15.3°
Reaches altitude 10° 05:14:23 10° 72° (ENE) 2,299 6.4 -14.4°
Maximum altitude 05:16:01 11° 91° (E) 2,196 6.6 -14.1°
Drops below altitude 10° 05:17:39 10° 110° (ESE) 2,294 6.9 -13.8°
Sets 05:21:44 0° 143° (SE) 3,213 7.1 -13.0°
